Regional Weather Roundup
Issued by NWS Memphis, TN

Home | Current Version | Previous Version | Text Only | Print | Product List | Glossary On
Versions: 1 2 3 4 5 6 7 8 9 10 11 12 13 14 15 16 17 18 19 20 21 22 23 24 25 26 27 28 29 30 31 32 33 34 35 36 37 38 39 40 41 42 43 44 45 46 47 48 49 50
000
ASUS44 KMEG 311500
RWRMEG
MEMPHIS CWA HOURLY WEATHER ROUNDUP
NATIONAL WEATHER SERVICE MEMPHIS TN
1000 AM CDT FRI OCT 31 2014

...WEST TENNESSEE...

CITY           SKY/WX    TMP DP  RH WIND       PRES   REMARKS
MEMPHIS INTL   MOSUNNY   55  46  71 N15G23    30.11R
NWS MEMPHIS      N/A     55 N/A N/A MISG        N/A
JACKSON        PTSUNNY   54  49  83 N12       30.08R
LEXINGTON      MOSUNNY   55  46  71 N3        30.04S
SAVANNAH       MOSUNNY   54  54 100 VRB5      30.05S
DYERSBURG      CLOUDY    52  37  58 N18G26    30.13R
UNION CITY     CLOUDY    52  45  76 N15       30.10R
PARIS          CLOUDY    50  45  81 N14       30.08R


...EASTERN ARKANSAS...

CITY           SKY/WX    TMP DP  RH WIND       PRES   REMARKS
JONESBORO      SUNNY     54  44  69 N12G31    30.16R
WEST MEMPHIS   PTSUNNY   53  48  83 N14G26    30.13R
BATESVILLE     MOSUNNY  N/A N/A N/A N8G18     30.20S
WALNUT RIDGE   SUNNY     54  41  62 N22G28    30.18R
BLYTHEVILLE    CLOUDY    53  48  83 N26G35    30.14R
SEARCY         SUNNY     57  43  59 N14       30.20S
STUTTGART      SUNNY     57  45  62 N17G30    30.18R
PINE BLUFF     SUNNY     58  44  60 N16G29    30.17R
MONTICELLO     SUNNY     59  45  59 N9G20     30.15R


...NORTH MISSISSIPPI...

CITY           SKY/WX    TMP DP  RH WIND       PRES   REMARKS
TUPELO         MOSUNNY   56  49  77 N10       30.04R
GREENWOOD      SUNNY     59  49  69 N12       30.07R
STARKVILLE     FAIR      57  50  77 NW5       30.03R
GOLDEN TRIANGL SUNNY     57  48  72 NW12      30.01R


...SOUTHEAST MISSOURI...

CITY           SKY/WX    TMP DP  RH WIND       PRES   REMARKS
WEST PLAINS    CLOUDY    47  38  71 N12G20    30.24R
POPLAR BLUFF   PTSUNNY   51  40  65 N18G28    30.16R
CAPE GIRARDEAU PTSUNNY   52  42  69 N16G30    30.16R


...NORTHWEST ALABAMA...

CITY           SKY/WX    TMP DP  RH WIND       PRES   REMARKS
MUSCLE SHOALS  CLOUDY    55  48  77 NW5       30.04R


...MIDDLE TENNESSEE...

CITY           SKY/WX    TMP DP  RH WIND       PRES   REMARKS
NASHVILLE      CLOUDY    51  47  86 NW5       30.03S
CLARKSVILLE    CLOUDY    50  45  83 N9        30.06R


...WESTERN KENTUCKY...

CITY           SKY/WX    TMP DP  RH WIND       PRES   REMARKS
PADUCAH        CLOUDY    51  44  77 N16       30.12R
FORT CAMPBELL  CLOUDY    49  49 100 N6        30.06R FOG


...CENTRAL ARKANSAS...

CITY           SKY/WX    TMP DP  RH WIND       PRES   REMARKS
LITTLE ROCK    SUNNY     59  40  49 N16G29    30.20R


SKY/WX REPORTED AS FAIR MEANS FEW OR NO CLOUDS BELOW
12 THOUSAND FEET.




USA.gov is the U.S. government's official web portal to all federal, state and local government web resources and services.